Stations météo

réclame
Mon MeteoGroup
Bournemouth Airport, Grande-Bretagne (3862): Température de l'air & dewpoint: 16.10.2020 05:00:00 - 22.10.2020 05:00:00 (BST)Bournemouth Airport, Grande-Bretagne (3862): Température de l'air -20cm & Température de l'air -100cm: 16.10.2020 05:00:00 - 22.10.2020 05:00:00 (BST)Bournemouth Airport, Grande-Bretagne (3862): Vitesse du vent & gusts: 16.10.2020 05:00:00 - 22.10.2020 05:00:00 (BST)Bournemouth Airport, Grande-Bretagne (3862): Direction du vent: 16.10.2020 05:00:00 - 22.10.2020 05:00:00 (BST)Bournemouth Airport, Grande-Bretagne (3862): reduced air pressure: 16.10.2020 05:00:00 - 22.10.2020 05:00:00 (BST)Bournemouth Airport, Grande-Bretagne (3862): visibility: 16.10.2020 05:00:00 - 22.10.2020 05:00:00 (BST)Bournemouth Airport, Grande-Bretagne (3862): Ensoleillement: 16.10.2020 05:00:00 - 22.10.2020 05:00:00 (BST)Bournemouth Airport, Grande-Bretagne (3862): Quantités de précipitations: 16.10.2020 05:00:00 - 22.10.2020 05:00:00 (BST)
Date & Time tt [°C] td [°C] tt -20cm [°C] tt -100cm [°C] ff [km/h] ff [knt] fx [km/h] fx [knt] dd ppp [hPa] vv [km] sd [min] rr [mm]
22.10.2020 05:00:00 13,0 10,5 - - 16 9 - - SSW 1005,9 29 0 0,0
22.10.2020 04:00:00 13,2 10,9 - - 13 7 - - SW 1005,8 28 0 0,0
22.10.2020 03:00:00 13,0 10,7 - - 13 7 - - SW 1005,7 29 0 0,0
22.10.2020 02:00:00 13,6 10,9 - - 22 12 - - SW 1005,3 30 0 0,0
22.10.2020 01:00:00 13,2 10,6 - - 21 11 - - SW 1004,9 29 - 0,0
22.10.2020 00:00:00 13,5 10,9 - - 22 12 - - SW 1004,4 26 0 0,0
21.10.2020 23:00:00 13,7 11,1 - - 24 13 - - SW 1003,9 26 0 0,2
21.10.2020 22:00:00 14,0 11,0 - - 18 10 - - SW 1003,5 27 0 0,0
21.10.2020 21:00:00 13,7 10,9 - - 22 12 48 26 SW 1003,0 10 0 0,0
21.10.2020 20:00:00 14,3 12,5 - - 26 14 - - SW 1002,0 10 0 0,0
21.10.2020 19:00:00 14,3 13,3 - - 11 6 - - SW 1001,1 10 0 0,0
21.10.2020 18:00:00 14,2 12,7 - - 11 6 - - SSW 1000,3 35 0 0,0
21.10.2020 17:00:00 14,9 13,0 - - 13 7 - - SW 999,5 10 0 0,0
21.10.2020 16:00:00 15,0 13,6 - - 16 9 - - SW 998,4 10 6 0,2
21.10.2020 15:00:00 16,1 14,1 - - 16 9 - - W 996,8 45 6 0,2
21.10.2020 14:00:00 15,3 14,1 - - 21 11 - - W 995,7 10 0 0,0
21.10.2020 13:00:00 14,7 13,3 - - 13 7 - - NW 993,7 9 0 0,0
21.10.2020 12:00:00 15,3 14,7 - - 15 8 - - WNW 992,1 18 0 0,4
21.10.2020 11:00:00 15,2 14,8 - - 8 4 - - WSW 991,0 7 0 1,6
21.10.2020 10:00:00 14,7 14,3 12,7 12,4 8 4 - - S 990,7 5 0 2,8
21.10.2020 09:00:00 14,6 14,2 - - 13 7 - - SSE 990,9 5 0 2,8
21.10.2020 08:00:00 14,7 14,3 - - 13 7 - - SSE 991,3 5 0 2,0
21.10.2020 07:00:00 14,5 14,2 - - 8 4 - - ESE 991,9 2,0 0 3,2
21.10.2020 06:00:00 14,3 13,9 - - 8 4 - - E 993,2 1,6 0 1,6
21.10.2020 05:00:00 14,6 14,0 - - 8 4 - - ESE 994,3 7 0 0,2
21.10.2020 04:00:00 14,9 14,2 - - 11 6 - - SE 995,6 8 0 0,6
21.10.2020 03:00:00 15,0 14,1 - - 13 7 - - SE 996,6 5 0 0,6
21.10.2020 02:00:00 15,4 13,9 - - 13 7 - - SE 997,5 14 0 0,0
21.10.2020 01:00:00 15,6 13,7 - - 11 6 - - SSE 998,0 18 - 0,0
21.10.2020 00:00:00 15,8 13,8 - - 15 8 - - S 998,5 19 0 0,0
20.10.2020 23:00:00 15,8 13,8 - - 15 8 - - S 998,7 18 0 0,0
20.10.2020 22:00:00 15,6 13,9 - - 15 8 - - SSE 998,9 16 0 0,0
20.10.2020 21:00:00 15,8 14,0 - - 21 11 - - S 999,2 16 0 0,0
20.10.2020 20:00:00 16,0 13,9 - - 16 9 - - S 999,7 18 0 0,0
20.10.2020 19:00:00 16,0 13,4 - - 16 9 - - S 999,6 10 0 0,0
20.10.2020 18:00:00 15,9 13,3 - - 21 11 - - S 999,6 20 0 0,0
20.10.2020 17:00:00 16,3 13,4 - - 22 12 - - S 1000,0 10 18 0,0
20.10.2020 16:00:00 16,5 13,7 - - 28 15 46 25 S 1000,5 10 36 0,0
20.10.2020 15:00:00 16,7 13,4 - - 34 18 52 28 SSW 1000,4 10 60 0,0
20.10.2020 14:00:00 16,9 14,0 - - 37 20 55 30 S 1000,6 10 36 0,0
20.10.2020 13:00:00 16,6 14,3 - - 31 17 48 26 S 1000,9 16 6 0,0
20.10.2020 12:00:00 16,3 14,2 - - 29 16 48 26 S 1000,9 16 12 0,0
20.10.2020 11:00:00 16,4 14,0 - - 29 16 52 28 SSW 1000,6 16 24 0,0
20.10.2020 10:00:00 15,6 13,8 11,7 12,2 31 17 50 27 S 1000,6 10 0 0,0
20.10.2020 09:00:00 15,3 13,6 - - 22 12 - - SSW 1000,5 14 0 0,0
20.10.2020 08:00:00 15,1 13,9 - - 22 12 - - SSW 1000,0 8 0 0,8
20.10.2020 07:00:00 14,7 13,2 - - 18 10 - - S 999,7 11 0 0,0
20.10.2020 06:00:00 14,0 13,2 - - 21 11 - - S 1000,0 12 0 0,2
20.10.2020 05:00:00 13,8 12,9 - - 26 14 - - S 1000,1 4,0 0 0,6
20.10.2020 04:00:00 14,4 12,3 - - 29 16 - - S 1000,2 13 0 0,0
20.10.2020 03:00:00 13,8 12,0 - - 26 14 - - S 1000,7 19 0 0,2
20.10.2020 02:00:00 13,3 11,6 - - 22 12 - - SSE 1002,0 6 0 1,4
20.10.2020 01:00:00 13,2 10,9 - - 18 10 - - S 1003,2 5 - 1,2
20.10.2020 00:00:00 14,8 10,0 - - 18 10 - - SSE 1003,8 22 0 0,0
19.10.2020 23:00:00 14,5 9,6 - - 24 13 - - SSE 1004,4 22 0 0,0
19.10.2020 22:00:00 14,4 8,8 - - 24 13 - - SSE 1004,9 10 0 0,0
19.10.2020 21:00:00 14,2 9,0 - - 24 13 - - SE 1005,7 10 0 0,0
19.10.2020 20:00:00 14,2 9,1 - - 26 14 - - SE 1006,8 10 0 0,0
19.10.2020 19:00:00 14,2 8,8 - - 24 13 - - SE 1008,1 30 0 0,0
19.10.2020 18:00:00 14,1 8,5 - - 24 13 - - SE 1008,6 10 0 0,0
19.10.2020 17:00:00 14,2 8,1 - - 24 13 - - SSE 1009,5 10 0 0,0
19.10.2020 16:00:00 13,9 8,1 - - 22 12 - - SSE 1010,8 10 0 0,0
19.10.2020 15:00:00 14,1 7,8 - - 22 12 - - SSE 1012,0 10 0 0,0
19.10.2020 14:00:00 14,1 7,7 - - 21 11 - - SSE 1013,0 10 0 0,0
19.10.2020 13:00:00 14,6 6,4 - - 26 14 - - SSE 1014,6 10 60 0,0
19.10.2020 12:00:00 14,7 6,6 - - 28 15 - - SSE 1015,2 10 60 0,0
19.10.2020 11:00:00 14,2 7,0 - - 26 14 - - S 1016,1 10 36 0,0
19.10.2020 10:00:00 13,7 7,7 11,4 12,4 21 11 - - S 1016,7 10 12 0,0
19.10.2020 09:00:00 12,6 7,5 - - 15 8 - - SSE 1016,8 26 0 0,0
19.10.2020 08:00:00 12,3 7,2 - - 15 8 - - S 1017,3 24 0 0,0
19.10.2020 07:00:00 12,3 7,3 - - 11 6 - - S 1017,7 10 0 0,0
19.10.2020 06:00:00 11,9 7,2 - - 11 6 - - S 1018,6 10 0 0,0
19.10.2020 05:00:00 11,8 7,5 - - 11 6 - - S 1018,9 26 0 0,0
19.10.2020 04:00:00 11,3 7,3 - - 11 6 - - S 1019,3 30 0 0,0
19.10.2020 03:00:00 9,9 6,9 - - 5 3 - - S 1020,4 29 0 0,0
19.10.2020 02:00:00 7,3 6,6 - - 4 2 - - SSE 1021,1 13 0 0,0
19.10.2020 01:00:00 8,6 8,0 - - 2 1 - - ENE 1021,5 12 - 0,0
19.10.2020 00:00:00 8,5 7,9 - - 2 1 - - NE 1022,2 11 0 0,0
18.10.2020 23:00:00 8,1 7,7 - - 0 0 - - N 1022,6 14 0 0,0
18.10.2020 22:00:00 8,0 7,7 - - 4 2 - - ENE 1022,5 9 0 0,0
18.10.2020 21:00:00 6,4 5,7 - - 0 0 - - N 1022,9 0,4 0 0,0
18.10.2020 20:00:00 7,7 6,6 - - 4 2 - - ENE 1023,3 10 0 0,0
18.10.2020 19:00:00 9,9 8,2 - - 2 1 - - E 1023,1 10 0 0,0
18.10.2020 18:00:00 10,6 8,7 - - 2 1 - - - 1023,1 10 0 0,0
18.10.2020 17:00:00 11,2 7,9 - - 4 2 - - - 1023,1 10 0 0,0
18.10.2020 16:00:00 11,7 7,7 - - 5 3 - - N 1023,3 10 0 0,0
18.10.2020 15:00:00 12,2 7,0 - - 0 0 - - N 1023,6 10 0 0,0
18.10.2020 14:00:00 11,8 7,4 - - 2 1 - - ENE 1024,1 10 0 0,0
18.10.2020 13:00:00 11,2 8,1 - - 5 3 - - E 1024,5 10 0 0,0
18.10.2020 12:00:00 10,0 8,0 - - 4 2 - - NNW 1025,2 28 0 0,0
18.10.2020 11:00:00 9,1 7,4 - - 4 2 - - - 1025,1 10 0 0,0
18.10.2020 10:00:00 8,2 7,3 11,5 12,5 4 2 - - N 1025,1 10 0 0,0
18.10.2020 09:00:00 7,3 6,7 - - 4 2 - - N 1024,9 20 0 0,0
18.10.2020 08:00:00 6,5 5,9 - - 4 2 - - - 1024,6 10 0 0,0
18.10.2020 07:00:00 6,6 6,0 - - 2 1 - - NE 1024,1 10 0 0,0
18.10.2020 06:00:00 6,4 5,8 - - 4 2 - - NNE 1023,6 10 0 0,0
18.10.2020 05:00:00 6,3 5,6 - - 4 2 - - N 1023,8 28 0 0,0
18.10.2020 04:00:00 6,7 5,8 - - 4 2 - - NNE 1023,7 21 0 0,0
18.10.2020 03:00:00 7,8 6,8 - - 2 1 - - NE 1023,8 23 0 0,0
18.10.2020 02:00:00 8,7 7,2 - - 4 2 - - ENE 1023,5 28 0 0,0
18.10.2020 01:00:00 9,7 7,5 - - 4 2 - - E 1023,6 30 - 0,0
18.10.2020 00:00:00 9,6 7,6 - - 9 5 - - NNE 1023,6 30 0 0,0
17.10.2020 23:00:00 9,8 7,9 - - 8 4 - - N 1023,6 25 0 0,0
17.10.2020 22:00:00 8,9 7,8 - - 4 2 - - N 1023,4 25 0 0,0
17.10.2020 21:00:00 8,2 7,2 - - 2 1 - - NW 1023,1 10 0 0,0
17.10.2020 20:00:00 8,7 7,2 - - 4 2 - - NE 1022,8 29 0 0,0
17.10.2020 19:00:00 9,7 7,1 - - 4 2 - - NNE 1022,4 10 0 0,0
17.10.2020 18:00:00 11,5 7,7 - - 5 3 - - ENE 1021,8 45 0 0,0
17.10.2020 17:00:00 12,7 6,8 - - 8 4 - - ENE 1021,6 50 0 0,0
17.10.2020 16:00:00 13,0 7,8 - - 9 5 - - ENE 1021,7 10 0 0,0
17.10.2020 15:00:00 13,1 8,4 - - 15 8 - - NE 1021,7 45 6 0,0
17.10.2020 14:00:00 13,2 7,9 - - 16 9 - - ENE 1021,6 50 24 0,0
17.10.2020 13:00:00 13,3 6,0 - - 15 8 - - E 1022,1 10 48 0,0
17.10.2020 12:00:00 13,0 6,8 - - 16 9 - - E 1022,3 75 60 0,0
17.10.2020 11:00:00 11,5 8,3 - - 18 10 - - ENE 1022,1 10 24 0,0
17.10.2020 10:00:00 10,7 8,6 11,2 12,7 16 9 - - ENE 1022,2 10 42 0,0
17.10.2020 09:00:00 10,0 8,5 - - 13 7 - - NE 1022,1 45 0 0,0
17.10.2020 08:00:00 8,7 7,9 - - 11 6 - - NNE 1021,8 10 0 0,0
17.10.2020 07:00:00 8,9 7,8 - - 11 6 - - NE 1021,8 10 0 0,0
17.10.2020 06:00:00 9,2 8,1 - - 11 6 - - NE 1021,9 25 0 0,0
17.10.2020 05:00:00 9,3 8,2 - - 13 7 - - NE 1022,0 24 0 0,0
17.10.2020 04:00:00 7,2 6,5 - - 4 2 - - W 1022,2 15 0 0,0
17.10.2020 03:00:00 6,2 5,4 - - 4 2 - - NNW 1022,6 24 0 0,0
17.10.2020 02:00:00 5,7 5,1 - - 5 3 - - NW 1022,9 25 0 0,0
17.10.2020 01:00:00 4,4 3,5 - - 5 3 - - NNW 1023,1 25 - 0,0
17.10.2020 00:00:00 5,5 4,5 - - 8 4 - - N 1023,5 29 0 0,0
16.10.2020 23:00:00 7,0 5,0 - - 4 2 - - NNW 1023,8 29 0 0,0
16.10.2020 22:00:00 8,1 5,8 - - 8 4 - - NNE 1024,2 10 0 0,0
16.10.2020 21:00:00 8,3 5,7 - - 2 1 - - NNE 1024,0 21 0 0,0
16.10.2020 20:00:00 8,9 6,1 - - 5 3 - - ENE 1024,1 35 0 0,0
16.10.2020 19:00:00 7,7 4,7 - - 9 5 - - NNE 1023,8 10 0 0,0
16.10.2020 18:00:00 10,1 5,0 - - 9 5 - - NE 1023,5 10 48 0,0
16.10.2020 17:00:00 12,6 5,6 - - 9 5 - - NE 1023,2 10 18 0,0
16.10.2020 16:00:00 13,0 5,2 - - 11 6 - - ENE 1023,5 10 0 0,0
16.10.2020 15:00:00 12,7 5,8 - - 9 5 - - NE 1023,9 10 0 0,0
16.10.2020 14:00:00 12,5 6,3 - - 11 6 - - NE 1024,2 50 12 0,0
16.10.2020 13:00:00 12,9 5,9 - - 11 6 - - E 1024,5 10 42 0,0
16.10.2020 12:00:00 12,8 6,8 - - 11 6 - - ENE 1025,0 45 60 0,0
16.10.2020 11:00:00 11,6 7,3 - - 16 9 - - NE 1025,0 10 60 0,0
16.10.2020 10:00:00 9,7 7,4 11,5 12,7 11 6 - - NE 1025,3 10 48 0,0
16.10.2020 09:00:00 5,1 4,9 - - 4 2 - - - 1025,4 10 0 0,0
16.10.2020 08:00:00 3,8 3,2 - - 4 2 - - NW 1025,2 0,3 0 0,0
16.10.2020 07:00:00 4,3 3,6 - - 5 3 - - - 1025,1 10 0 0,0
16.10.2020 06:00:00 6,4 5,7 - - 5 3 - - NNE 1024,9 30 0 0,0
16.10.2020 05:00:00 5,7 5,2 - - 9 5 - - NNW 1024,9 30 0 0,0

tt = Température de l'air
td = dewpoint
tt -20cm = Température de l'air -20cm
tt -100cm = Température de l'air -100cm
ff = Vitesse du vent
fx = gusts
dd = Direction du vent
ppp = reduced air pressure
vv = visibility
sd = Ensoleillement
rr = Quantités de précipitations

stations d'obs. à proximité